TimeCST,TemperatureF,Dew PointF,Humidity,Sea Level PressureIn,VisibilityMPH,Wind Direction,Wind SpeedMPH,Gust SpeedMPH,PrecipitationIn,Events,Conditions,WindDirDegrees,DateUTC
12:15 AM,68.0,60.8,78,30.00,10.0,South,10.4,19.6,N/A,,Clear,180,2013-01-28 06:15:00
12:35 AM,68.0,62.6,83,30.00,10.0,South,11.5,18.4,N/A,,Scattered Clouds,180,2013-01-28 06:35:00
12:55 AM,68.0,62.6,83,30.00,10.0,South,12.7,17.3,N/A,,Clear,180,2013-01-28 06:55:00
1:15 AM,68.0,62.6,83,30.01,10.0,South,9.2,-,N/A,,Clear,170,2013-01-28 07:15:00
1:35 AM,66.2,60.8,83,30.00,10.0,South,9.2,-,N/A,,Clear,170,2013-01-28 07:35:00
1:55 AM,66.2,62.6,88,30.00,10.0,South,11.5,-,N/A,,Clear,170,2013-01-28 07:55:00
2:15 AM,66.2,62.6,88,30.00,10.0,South,10.4,-,N/A,,Scattered Clouds,170,2013-01-28 08:15:00
2:35 AM,66.2,62.6,88,30.00,10.0,South,10.4,-,N/A,,Scattered Clouds,170,2013-01-28 08:35:00
2:55 AM,66.2,62.6,88,30.00,10.0,South,8.1,-,N/A,,Scattered Clouds,170,2013-01-28 08:55:00
3:15 AM,66.2,62.6,88,30.00,10.0,South,8.1,-,N/A,,Scattered Clouds,170,2013-01-28 09:15:00
3:35 AM,66.2,62.6,88,30.00,10.0,South,10.4,-,N/A,,Scattered Clouds,170,2013-01-28 09:35:00
3:55 AM,66.2,62.6,88,30.00,10.0,SSE,8.1,-,N/A,,Mostly Cloudy,160,2013-01-28 09:55:00
4:15 AM,68.0,62.6,83,30.00,10.0,South,9.2,17.3,N/A,,Overcast,180,2013-01-28 10:15:00
4:35 AM,68.0,62.6,83,30.00,10.0,South,9.2,-,N/A,,Overcast,190,2013-01-28 10:35:00
4:55 AM,68.0,62.6,83,29.99,10.0,South,10.4,-,N/A,,Overcast,180,2013-01-28 10:55:00
5:15 AM,68.0,62.6,83,29.99,10.0,South,8.1,-,N/A,,Overcast,170,2013-01-28 11:15:00
6:50 AM,68.0,62.6,83,29.99,10.0,SSE,11.5,17.3,N/A,,Overcast,160,2013-01-28 12:50:00
7:54 AM,68.0,62.6,83,30.00,10.0,SSE,11.5,-,N/A,,Overcast,160,2013-01-28 13:54:00
8:49 AM,69.8,62.6,78,30.00,10.0,SSE,13.8,-,N/A,,Overcast,160,2013-01-28 14:49:00
9:50 AM,71.6,64.4,78,30.01,10.0,South,11.5,19.6,N/A,,Overcast,170,2013-01-28 15:50:00
10:50 AM,73.4,64.4,73,30.00,10.0,South,16.1,-,N/A,,Overcast,170,2013-01-28 16:50:00
11:53 AM,73.4,64.4,73,29.98,10.0,South,19.6,32.2,N/A,,Mostly Cloudy,170,2013-01-28 17:53:00
12:49 PM,75.2,64.4,69,29.94,10.0,South,18.4,-,N/A,,Mostly Cloudy,170,2013-01-28 18:49:00
1:46 PM,77.0,62.6,61,29.90,10.0,South,17.3,-,N/A,,Mostly Cloudy,180,2013-01-28 19:46:00
2:52 PM,78.8,62.6,57,29.87,10.0,South,24.2,31.1,N/A,,Mostly Cloudy,170,2013-01-28 20:52:00
3:52 PM,78.8,60.8,54,29.87,10.0,South,15.0,32.2,N/A,,Overcast,170,2013-01-28 21:52:00
4:47 PM,78.8,60.8,54,29.86,10.0,SSE,21.9,29.9,N/A,,Mostly Cloudy,160,2013-01-28 22:47:00
5:45 PM,77.0,60.8,57,29.86,10.0,SSE,18.4,28.8,N/A,,Mostly Cloudy,160,2013-01-28 23:45:00
6:46 PM,75.2,60.8,61,29.87,10.0,South,18.4,25.3,N/A,,Overcast,180,2013-01-29 00:46:00
6:55 PM,73.4,60.8,65,29.88,10.0,South,17.3,25.3,N/A,,Overcast,180,2013-01-29 00:55:00
7:15 PM,73.4,60.8,65,29.89,10.0,South,10.4,20.7,N/A,,Overcast,180,2013-01-29 01:15:00
7:35 PM,73.4,60.8,65,29.88,10.0,South,15.0,21.9,N/A,,Overcast,170,2013-01-29 01:35:00
7:55 PM,73.4,60.8,65,29.87,10.0,South,16.1,23.0,N/A,,Overcast,170,2013-01-29 01:55:00
8:15 PM,73.4,60.8,65,29.87,10.0,South,16.1,25.3,N/A,,Mostly Cloudy,180,2013-01-29 02:15:00
8:35 PM,73.4,60.8,65,29.87,10.0,South,15.0,24.2,N/A,,Overcast,170,2013-01-29 02:35:00
8:55 PM,71.6,60.8,69,29.87,10.0,South,16.1,25.3,N/A,,Overcast,170,2013-01-29 02:55:00
9:15 PM,71.6,60.8,69,29.87,10.0,SSE,18.4,23.0,N/A,,Overcast,160,2013-01-29 03:15:00
9:35 PM,71.6,60.8,69,29.87,10.0,South,17.3,25.3,N/A,,Scattered Clouds,170,2013-01-29 03:35:00
9:55 PM,71.6,60.8,69,29.87,10.0,South,13.8,25.3,N/A,,Mostly Cloudy,180,2013-01-29 03:55:00
10:15 PM,69.8,60.8,73,29.87,10.0,South,11.5,18.4,N/A,,Mostly Cloudy,170,2013-01-29 04:15:00
10:35 PM,71.6,60.8,69,29.88,10.0,South,9.2,-,N/A,,Overcast,170,2013-01-29 04:35:00
10:55 PM,69.8,60.8,73,29.87,10.0,South,13.8,19.6,N/A,,Overcast,170,2013-01-29 04:55:00
11:15 PM,69.8,62.6,78,29.87,10.0,South,10.4,18.4,N/A,,Overcast,170,2013-01-29 05:15:00
11:35 PM,69.8,60.8,73,29.86,10.0,SSE,13.8,18.4,N/A,,Overcast,160,2013-01-29 05:35:00
11:55 PM,69.8,62.6,78,29.86,10.0,South,10.4,19.6,N/A,,Overcast,170,2013-01-29 05:55:00